#timestamp,LO_Frequency,Hit,StdDev 
1571414415.9,286047001.9,N
1571414435.7,286047002.3,N
1571414455.6,286047004.4,N
1571414475.4,286047007.0,N
1571414495.2,286047009.0,N
1571414515.1,286047007.8,N
1571414516.0,286047007.8,N
1571414535.8,286047007.8,N
1571414555.7,286047009.9,N
1571414575.5,286047009.6,N
1571414595.3,286047008.3,N
1571414615.2,286047008.5,N
1571414635.0,286047008.3,N
1571414635.9,286047008.3,N
1571414655.7,286047010.7,N
1571414675.6,286047012.4,N
1571414695.4,286047009.3,N
1571414715.3,286047011.3,N
1571414735.1,286047011.2,N
1571414736.0,286047011.2,N
1571414755.8,286047009.5,N
1571414775.7,286047010.0,N
1571414795.5,286047007.7,N
1571414815.3,286047007.8,N
1571414835.2,286047008.8,N
1571414855.0,286047006.7,N
1571414855.9,286047006.7,N
1571414875.8,286047005.9,N
1571414895.6,286047003.5,N
1571414915.4,286047003.4,N
1571414935.3,286047003.6,N
1571414955.1,286047006.0,N
1571414975.9,286047005.0,N
1571414995.7,286047007.6,Y
1571415015.5,286046997.1,P
1571415035.4,286046996.8,N
1571415055.2,286046995.9,N
1571415075.0,286046995.1,N
1571415075.9,286046995.1,N
1571415095.8,286046995.0,N
1571415115.6,286046995.1,N
1571415135.5,286046997.5,N
1571415155.3,286046995.0,N
1571415175.1,286046995.4,N
1571415195.9,286046998.0,N
1571415215.7,286046999.6,N
1571415235.5,286046999.1,N
1571415255.4,286046996.9,N
1571415275.2,286046996.9,N
1571415295.1,286046999.4,N
1571415296.0,286046999.4,N
1571415315.8,286046998.2,N
1571415335.6,286046999.7,N
1571415355.5,286047002.7,N
1571415375.3,286046999.8,N
1571415425.2,286047000.0,E
1571415435.1,286047000.2,N
1571415455.8,286047000.1,P
1571415475.7,286047002.8,P
1571415495.5,286047001.5,N
1571415515.4,286047001.6,N
1571415535.2,286047001.6,N
1571415555.0,286047002.2,N
1571415555.9,286047002.2,N
1571415575.8,286047001.5,N
1571415595.6,286047003.3,Y
1571415615.5,286047001.3,P
1571415635.3,286047002.1,P
1571415655.1,286047001.8,P
1571415675.9,286047001.0,Y
1571415695.7,286046993.3,P
1571415715.5,286046993.1,N
1571415735.4,286046988.5,N
1571415755.2,286046989.5,N
1571415775.1,286046988.4,N
1571415776.0,286046988.4,N
1571415795.8,286046984.5,Y
1571415815.6,286046993.2,P
1571415835.5,286046990.1,P
1571415855.3,286046990.5,P
1571415875.2,286046990.6,Y
1571415895.9,286046999.0,P
1571415915.7,286047001.1,N
1571415935.6,286046999.8,N
1571415955.4,286047000.0,N
1571415975.2,286047001.0,N
1571415995.1,286046997.6,N
1571415996.0,286046997.6,N
1571416015.8,286046996.8,N
1571416035.7,286046999.5,N
1571416055.5,286046999.4,N
1571416075.3,286046998.1,N
1571416095.2,286047000.6,N
1571416115.9,286047000.1,N
1571416135.7,286046999.2,N
1571416155.6,286046999.5,N
1571416175.4,286046996.5,N
1571416195.3,286046996.9,N
1571416215.1,286046997.5,N
1571416216.0,286046997.5,N
1571416235.8,286046995.9,N
1571416255.7,286046993.4,Y
1571416275.5,286046995.8,P
1571416295.3,286046995.9,P
1571416315.2,286046991.7,P
1571416335.0,286046991.8,Y
1571416335.9,286046991.8,P
1571416355.8,286046997.6,N
1571416375.6,286046996.6,N
1571416395.4,286046999.1,N
1571416415.3,286046997.3,N
1571416435.1,286046997.5,N
1571416455.8,286046994.9,N
1571416475.7,286046995.9,N
1571416495.5,286046999.6,N
1571416515.4,286046999.5,N
1571416535.2,286047000.4,N
1571416555.0,286047000.8,N
1571416555.9,286047000.8,N
1571416575.8,286047001.6,N
1571416595.6,286047005.8,N
1571416615.4,286047006.5,N
1571416635.3,286047010.3,N
1571416655.1,286047011.5,N
1571416675.9,286047013.9,N
1571416695.7,286047013.9,N
1571416715.5,286047013.6,N
1571416735.4,286047011.0,N
1571416755.2,286047012.4,N
1571416775.0,286047009.4,N
1571416775.9,286047009.4,N
1571416795.8,286047009.4,N
1571416815.6,286047009.9,N
1571416835.5,286047010.1,N
1571416855.3,286047009.6,N
1571416875.1,286047009.3,N
1571416895.9,286047012.4,N
1571416915.7,286047011.6,N
1571416935.5,286047012.2,N
1571416955.4,286047012.4,N
1571416975.2,286047012.0,N
1571416995.1,286047012.3,N
1571416996.0,286047012.3,N
1571417015.8,286047012.2,N
1571417035.6,286047011.4,N
1571417055.5,286047013.1,Y
1571417075.3,286047003.9,P
1571417095.2,286047004.1,N
1571417115.9,286047004.3,N
1571417135.7,286047001.5,N
1571417155.6,286047001.3,N
1571417175.4,286047003.7,N
1571417195.2,286047006.0,N
1571417215.1,286047004.8,N
1571417216.0,286047004.8,N
1571417235.8,286047003.4,N
1571417255.7,286047002.9,N
1571417275.5,286047003.0,N
1571417295.3,286047005.4,N
1571417315.2,286047003.3,N
1571417335.0,286047005.5,N
1571417335.9,286047005.5,N
1571417355.8,286047005.8,Y
1571417375.6,286047000.1,P
1571417395.4,286047002.2,N
1571417415.3,286047004.3,N
1571417435.1,286047001.8,N
1571417455.8,286047002.2,N
1571417475.7,286047002.5,N
1571417495.5,286047002.3,N
1571417515.4,286047003.9,Y
1571417535.2,286047000.4,P
1571417555.0,286046999.9,N
1571417555.9,286046999.9,N
1571417575.8,286047000.8,N
1571417595.6,286047002.1,N
1571417615.4,286047001.7,N
1571417635.3,286047004.4,Y
1571417655.1,286047003.9,P
1571417675.9,286047003.8,N
1571417695.7,286047004.0,N
1571417715.5,286047003.5,N
1571417735.4,286047004.3,Y
1571417755.2,286047001.1,P
1571417775.1,286047001.0,N
1571417776.0,286047001.0,N
1571417795.8,286047002.5,N
1571417815.6,286047002.2,N
1571417835.5,286047002.2,N
1571417855.3,286047001.0,N
1571417875.2,286046996.9,Y
1571417895.9,286046995.0,P
1571417915.7,286046993.7,N
1571417935.6,286046993.3,N
1571417955.4,286046994.2,N
1571417975.2,286046996.3,N
1571417995.1,286046994.2,N
1571417996.0,286046994.2,N
